Theta_e
338 341 342 343 343 344 344 346 346 346 346 346 347 347 347 347 348 348 348 347 347 342 349 348 345 345 349 346 341 335 332 325 324
338 339 341 342 343 343 343 345 345 345 346 346 346 346 347 347 347 348 349 346 345 342 348 345 344 346 347 346 343 335 330 325 321
339 339 340 341 342 342 343 343 343 344 345 345 345 346 346 347 347 348 349 348 340 344 346 346 345 347 347 346 337 332 327 323 319
340 340 340 340 342 342 342 342 344 344 344 345 345 346 346 346 347 348 349 350 341 342 344 344 347 348 347 341 338 334 332 335 324
338 341 341 341 341 341 342 343 343 344 344 344 345 345 346 346 347 348 349 350 347 336 343 343 348 349 348 347 343 343 343 343 341
337 338 341 340 340 340 340 342 343 344 344 343 344 345 346 346 347 348 348 349 349 336 341 343 345 349 349 348 347 343 344 344 344
336 340 342 342 341 340 340 340 341 343 344 344 344 345 346 347 347 347 348 349 349 342 335 340 342 347 348 349 349 347 343 344 344
326 332 340 342 343 343 343 341 342 342 344 344 344 345 346 346 346 346 348 348 349 348 339 336 337 344 348 348 349 349 347 345 344
326 328 334 339 341 343 343 343 343 343 345 345 345 345 344 346 346 346 348 348 348 349 345 338 335 336 339 344 347 347 349 348 347
325 326 328 338 340 340 339 340 341 343 344 345 346 346 346 346 345 345 347 349 349 348 348 346 340 337 337 337 338 342 346 347 348
328 329 331 337 340 340 340 338 340 340 344 345 346 346 347 348 346 345 346 348 348 349 347 345 343 340 338 337 337 338 340 343 350
328 329 332 335 338 338 337 337 337 343 345 345 347 346 346 347 345 346 346 347 348 349 350 348 343 342 342 338 336 335 339 346 352
332 335 334 335 336 336 338 340 342 345 346 346 347 346 346 346 346 347 346 346 347 348 349 348 348 346 343 341 339 340 347 351 353
333 331 331 332 333 334 336 340 344 344 346 346 346 346 346 348 348 348 347 347 349 348 348 350 351 349 347 345 345 349 353 354 354
335 333 333 334 337 333 332 337 344 345 346 342 344 347 347 347 348 348 350 350 352 351 352 353 353 351 351 351 352 354 355 358 356
336 334 333 334 335 338 336 335 345 344 345 343 344 346 347 346 347 349 352 352 351 353 355 355 358 355 353 352 354 354 354 353 354
346 346 343 341 339 341 344 343 340 334 340 345 345 346 345 345 346 348 352 354 355 355 356 356 356 354 350 353 353 351 347 343 347
353 354 353 352 351 351 351 351 351 351 348 340 343 346 346 347 348 350 353 353 354 355 356 356 353 351 350 351 343 346 348 346 342
349 349 348 348 347 347 347 342 338 335 342 355 351 350 348 348 349 350 352 353 356 356 356 356 353 350 348 344 338 339 345 341 339
340 338 337 337 336 335 335 335 335 333 334 333 347 357 355 354 353 352 354 355 354 350 345 337 337 334 333 336 335 341 341 339 339
Wind_Speed
44 43 47 50 58 59 59 59 60 59 58 56 53 50 46 42 40 35 29 29 28 30 31 26 23 22 22 18 15 14 15 15 14
35 43 47 55 56 60 61 60 62 63 62 59 57 53 49 46 42 39 32 27 29 31 33 28 24 24 23 19 18 17 17 16 15
32 40 48 58 54 57 60 62 63 63 63 63 60 56 52 49 44 40 36 29 31 32 35 32 28 27 25 21 20 20 18 17 18
34 41 51 55 58 53 56 59 58 62 61 62 63 60 54 51 48 44 40 33 32 35 34 33 30 28 25 22 22 21 21 18 18
36 48 55 57 57 50 49 52 56 60 60 60 61 60 57 51 49 47 44 38 34 37 37 35 31 30 29 26 25 24 23 21 21
17 33 42 40 39 39 49 53 55 59 59 59 59 58 58 55 51 49 48 42 38 38 39 38 37 33 34 31 28 28 27 26 24
15 20 35 39 39 43 48 52 56 57 58 57 57 57 56 58 52 48 49 44 40 39 41 41 41 40 37 35 32 31 30 29 27
18 20 35 42 47 50 49 50 52 54 54 54 55 56 56 57 52 48 48 47 46 41 41 43 43 43 42 40 37 36 34 32 30
27 25 23 44 49 52 49 52 55 54 53 53 53 53 56 56 52 50 51 49 49 46 44 43 43 45 46 44 44 42 39 36 33
33 32 31 36 47 41 43 45 44 53 53 54 53 53 54 55 53 52 52 52 50 50 48 45 45 47 47 48 46 42 39 37 35
21 19 21 35 43 40 40 36 44 45 53 54 54 52 53 55 53 52 53 53 53 52 50 49 47 46 47 45 44 40 39 35 34
26 25 22 30 42 36 35 41 43 48 50 54 55 52 54 56 53 53 54 54 54 54 53 51 49 48 42 40 37 33 33 31 33
17 20 20 18 20 22 28 37 45 46 49 51 55 54 52 52 54 55 55 53 53 54 54 52 49 47 39 34 32 27 22 22 28
15 15 14 16 20 22 18 28 42 45 47 51 52 53 51 54 55 55 55 55 53 53 52 50 46 41 33 29 26 23 21 24 25
11 11 10 8 8 13 20 25 35 42 46 40 47 55 53 52 53 53 55 55 55 51 49 46 42 37 33 29 27 24 22 23 20
7 4 2 4 6 4 9 22 26 39 40 40 46 52 53 52 53 53 53 53 53 53 48 42 38 38 35 32 28 25 23 19 19
8 5 2 3 9 12 13 13 10 23 32 38 43 50 54 53 54 55 51 48 46 48 47 43 42 38 35 32 30 29 29 26 22
12 10 6 4 4 10 15 18 20 19 19 31 36 42 48 51 53 47 43 46 46 45 44 43 42 40 37 37 31 22 21 16 21
12 10 9 7 8 8 11 15 18 22 21 19 23 23 36 38 39 42 44 42 40 38 34 38 34 21 17 13 10 15 19 19 21
14 13 12 12 12 11 14 19 23 26 21 17 9 11 10 31 39 42 40 36 31 29 31 20 9 10 8 6 15 33 27 26 25
Wind_Direction
215 211 211 214 218 219 217 222 223 223 225 225 225 225 227 231 234 237 238 236 234 229 228 230 229 234 238 242 238 237 235 229 231
208 207 208 216 217 220 221 219 223 225 226 228 229 229 228 229 233 235 235 234 231 232 227 230 231 238 239 241 236 235 240 239 232
209 210 210 220 220 219 222 223 227 226 227 228 230 229 230 230 233 234 235 234 228 227 224 229 232 236 234 240 233 230 236 240 237
212 215 217 219 226 220 222 224 223 228 227 228 229 230 230 231 231 233 233 233 231 225 226 226 231 229 232 234 229 228 231 236 241
229 222 224 224 223 219 216 218 223 227 228 229 231 230 229 231 233 234 233 231 232 224 226 225 229 227 231 235 234 234 238 241 245
243 241 226 220 218 214 219 223 224 229 229 231 231 230 228 228 231 232 233 230 231 226 225 227 229 231 233 236 238 240 244 246 251
237 231 223 218 214 217 223 226 227 229 231 231 230 231 230 227 228 232 232 230 231 230 225 228 229 232 235 237 241 245 248 251 253
242 233 222 218 215 218 224 226 227 230 232 230 229 229 231 230 228 230 232 230 230 231 229 229 231 234 237 240 242 244 247 251 254
256 257 238 220 211 217 223 229 232 228 229 231 228 230 233 232 229 228 230 230 231 230 230 230 232 235 238 240 243 246 250 254 257
247 257 254 217 210 209 218 223 229 230 231 233 230 232 233 232 232 230 230 231 232 233 233 232 233 234 237 240 242 245 249 254 259
229 246 241 215 209 211 221 234 231 238 228 228 230 231 232 231 232 233 232 231 233 233 234 234 236 237 237 240 244 247 250 253 259
247 254 254 231 219 226 236 239 241 230 225 227 229 230 233 233 233 233 232 232 232 234 236 235 236 239 240 241 245 247 249 250 253
219 211 205 210 212 219 230 236 231 227 227 227 230 233 235 235 236 233 234 234 234 234 236 237 238 240 239 239 239 239 236 235 246
189 204 222 225 222 221 229 234 229 228 229 230 236 236 237 236 236 237 236 236 235 235 236 235 235 238 238 231 226 221 217 225 233
173 173 181 186 196 229 234 233 232 234 231 233 239 237 236 239 239 239 237 236 237 235 236 232 227 227 226 223 218 216 224 236 244
132 143 215 266 282 264 231 233 242 236 239 247 246 239 239 240 241 240 237 235 234 234 230 227 218 219 219 217 212 210 215 215 230
116 97 73 317 302 306 318 309 277 245 247 254 249 242 241 239 237 237 234 232 233 233 230 220 217 216 219 219 210 206 201 208 216
96 91 80 38 326 303 306 312 313 306 277 250 249 255 251 243 236 226 214 223 224 225 227 222 222 224 219 214 204 210 202 223 221
72 59 49 38 26 353 329 317 321 328 326 311 260 244 246 231 222 213 212 215 203 206 211 215 216 222 242 168 201 235 242 212 188
66 55 41 27 13 347 323 313 308 312 318 277 283 232 238 221 215 203 196 184 177 143 132 133 143 189 177 277 182 225 210 192 188